Wind_Speed
10 12 13 13 12 12 12 13 16 18 15 11 10 7 7 8 6 5 10 13 12 9 5 9 8 8 10 10 12 14 14 15 14 15 17 19 19 20 19 18 16 15 14 10 5 2 9 15 21 25 27 30 31 32 34 34 34 34 34 35 36 36 35 37 40 41 42 41 41 41 41 42 42 42 42 41 40 40 40 41 40 38 38 40 40 39 39
11 11 13 13 13 12 13 14 15 17 16 14 12 9 8 10 10 9 10 11 11 8 4 8 7 6 8 8 11 13 14 15 16 17 17 17 18 19 18 15 14 14 15 15 13 8 7 7 6 7 10 14 17 19 22 26 29 33 35 35 35 35 37 39 39 39 39 40 40 40 41 42 43 42 42 41 40 40 41 41 40 39 38 39 40 39 39
9 10 12 12 12 12 13 15 14 15 18 15 11 9 8 8 10 9 8 8 7 4 4 7 6 7 10 11 12 13 13 14 15 16 16 17 17 17 16 14 14 14 13 13 14 11 8 10 11 10 8 9 13 12 10 12 15 18 25 33 36 35 35 36 37 37 37 39 40 40 42 43 44 43 42 42 41 40 41 41 41 39 38 38 40 40 39
6 8 11 12 13 14 14 14 13 14 16 13 8 7 7 7 9 9 8 6 4 3 4 6 7 10 13 13 12 12 13 14 16 15 16 17 16 16 16 14 13 13 12 11 11 13 13 10 9 8 7 5 12 17 19 18 15 13 18 21 27 34 35 33 34 36 38 38 39 40 41 42 44 44 42 42 41 40 40 41 41 39 38 38 40 40 39
5 8 10 12 13 11 9 9 9 10 12 13 11 10 11 11 9 7 5 4 5 8 6 5 7 10 13 13 12 11 12 13 14 15 15 16 15 15 15 15 15 13 11 10 9 12 15 14 11 7 4 1 6 11 16 21 25 21 18 22 21 22 27 32 36 36 37 38 38 39 40 42 42 42 41 41 41 41 41 41 41 40 38 37 39 39 39
5 7 9 9 8 7 6 7 7 7 9 12 12 11 10 8 7 7 7 4 10 13 9 7 8 9 12 13 11 12 12 11 12 13 14 14 15 15 14 14 15 12 12 14 16 15 16 18 21 20 11 7 8 11 13 17 24 28 26 23 20 21 23 28 35 38 37 38 38 38 39 40 40 40 40 41 41 41 40 40 41 41 40 37 37 39 40
3 5 5 5 6 6 7 11 11 11 12 11 11 12 9 9 9 10 10 8 11 11 8 7 7 7 10 13 13 13 13 12 12 12 13 13 14 14 14 14 13 12 15 19 22 23 23 22 24 24 18 11 11 15 18 21 25 26 26 28 29 28 28 31 35 39 39 39 39 38 38 39 39 40 40 40 40 40 38 39 41 42 42 39 37 38 39
3 2 1 3 6 6 9 14 13 11 9 6 7 9 7 11 12 10 10 10 11 10 9 8 7 6 5 10 12 13 14 13 13 13 12 13 14 14 14 14 14 15 18 20 22 24 24 23 21 23 21 15 10 13 18 22 27 29 28 30 33 36 37 36 37 41 42 40 40 39 38 38 38 39 40 39 39 39 37 37 39 40 41 40 39 38 38
3 3 3 4 7 8 9 11 8 6 5 3 3 3 4 10 12 10 9 10 11 10 9 9 8 7 3 5 8 13 15 14 14 13 12 13 13 14 17 18 19 21 22 23 24 24 24 24 23 23 23 21 17 11 13 23 29 30 30 33 35 36 36 35 38 42 43 42 41 39 38 39 38 39 40 40 39 38 36 35 36 38 39 39 40 39 38
2 3 4 4 6 7 5 5 8 11 10 5 1 2 2 7 11 11 10 10 11 10 9 11 10 6 2 3 5 10 14 14 13 13 13 15 15 17 20 23 23 25 26 26 26 26 26 26 25 25 24 23 23 19 14 19 27 29 30 32 35 36 35 35 37 42 43 42 42 40 40 40 39 39 40 40 39 38 37 35 35 37 38 38 38 40 39
1 3 4 4 5 5 2 6 10 13 14 12 6 3 2 5 9 11 10 10 10 10 10 11 9 5 3 3 5 9 11 11 11 12 12 15 18 19 21 22 23 26 28 28 28 27 26 26 28 29 29 26 24 23 21 17 21 26 31 34 36 36 35 35 37 41 42 42 42 42 41 41 40 40 39 39 39 38 37 36 34 34 36 36 36 38 39
4 5 5 4 4 2 4 8 10 12 15 14 8 4 2 5 9 8 9 10 9 9 8 8 7 6 4 3 7 10 10 8 9 11 11 13 18 20 21 22 23 24 25 25 26 26 26 28 31 31 30 28 25 25 25 22 19 22 28 34 37 37 34 33 35 39 41 42 43 43 42 41 40 40 39 38 38 38 37 36 34 33 34 35 35 36 37
5 7 6 5 3 0 6 10 10 11 13 9 3 2 2 5 8 7 8 8 8 8 7 5 4 4 5 5 8 11 12 9 9 10 12 15 18 20 22 25 26 24 22 22 22 24 26 29 32 31 29 27 27 26 25 23 22 23 26 31 35 35 33 31 35 39 40 42 43 42 42 41 39 38 38 37 38 38 37 36 35 33 33 35 35 34 35
3 4 5 5 3 1 7 11 8 6 6 4 2 3 6 6 6 8 8 7 7 7 7 5 3 4 7 8 9 10 11 11 9 10 13 15 17 20 22 24 25 24 23 22 22 23 27 29 30 30 29 28 29 28 25 24 27 28 27 28 33 34 33 31 35 38 39 40 41 40 39 39 38 37 37 37 37 38 37 36 35 34 33 33 34 34 34
2 3 4 4 3 1 8 10 5 3 3 3 4 6 7 7 7 8 7 6 7 7 7 7 6 6 6 7 8 8 9 10 9 10 12 14 15 19 22 23 25 24 23 23 24 24 25 27 28 28 28 29 30 29 28 31 33 32 29 28 31 34 34 33 35 38 39 39 39 38 38 39 39 37 36 36 36 37 37 36 35 35 34 33 33 32 32
0 2 3 2 2 1 5 4 2 3 4 4 5 6 6 6 7 6 6 7 8 8 8 8 9 8 7 7 7 8 9 9 8 9 12 15 17 18 20 23 25 24 23 24 26 27 27 28 29 29 27 27 30 31 33 36 35 31 30 30 31 34 36 36 36 37 38 38 38 38 37 38 38 37 36 36 36 36 37 36 34 33 33 32 31 31 31
2 4 5 4 1 1 2 2 2 4 5 4 5 6 6 5 5 5 6 7 9 9 10 10 9 9 8 7 7 7 8 9 7 6 10 15 18 20 21 24 25 24 23 25 27 27 28 29 31 31 28 26 29 32 34 34 32 30 30 31 32 34 36 37 37 37 37 38 38 38 38 38 38 37 36 35 34 34 35 35 34 33 32 32 31 30 30
3 4 7 6 2 2 4 5 3 2 4 5 6 6 6 6 6 6 6 7 9 10 10 10 9 9 9 9 8 7 7 8 7 5 8 13 17 19 22 24 26 26 25 24 25 27 29 31 33 35 34 30 29 33 35 34 32 33 33 32 33 34 35 37 38 37 36 36 37 37 37 37 37 37 36 35 34 33 33 33 33 33 32 32 31 29 29
2 2 3 3 4 5 7 6 3 3 5 5 5 5 6 7 8 7 7 7 9 10 10 11 10 10 10 10 9 7 7 8 6 4 6 11 15 18 21 23 25 26 24 23 24 26 29 32 35 37 38 36 33 33 34 34 34 35 34 33 33 34 35 36 37 38 37 36 37 37 37 37 36 35 36 35 33 33 33 33 34 33 32 31 31 29 28
3 6 5 4 7 8 6 2 3 5 7 8 7 7 7 8 9 9 8 8 8 8 10 11 11 11 11 10 10 8 6 6 6 4 6 11 14 18 23 25 25 24 23 24 25 26 27 32 35 35 36 37 35 33 32 33 33 35 33 33 33 32 34 36 35 37 37 36 36 35 34 34 34 33 34 35 34 35 37 36 35 33 32 32 32 32 31
5 8 5 5 8 9 5 3 6 7 8 9 10 10 9 9 10 10 10 9 9 9 11 12 12 12 12 10 10 9 7 6 6 5 8 12 13 15 21 25 25 24 25 25 25 25 28 34 36 33 33 35 33 31 30 30 31 33 30 32 34 31 33 35 34 35 37 36 36 35 34 34 34 33 34 35 34 34 36 37 37 35 34 34 35 36 35
5 3 1 3 4 7 6 6 9 9 8 9 11 11 11 10 10 10 11 11 11 12 13 13 12 12 12 11 10 9 7 7 8 7 10 13 14 14 18 23 25 25 27 27 25 25 30 34 32 30 32 33 31 29 29 28 27 31 27 27 32 29 29 31 32 33 33 32 32 32 31 31 31 31 32 34 34 32 32 34 37 38 35 34 35 36 36
4 2 2 1 1 5 7 8 9 9 8 9 11 12 12 12 11 11 11 13 13 12 13 15 15 13 12 13 12 9 8 11 11 9 10 13 14 15 18 21 23 25 28 29 26 26 30 32 29 29 31 32 28 27 27 25 23 27 27 19 23 26 27 29 31 32 31 31 32 33 32 32 31 29 27 28 30 32 31 31 34 37 36 35 36 36 36
5 4 2 2 3 6 7 8 8 8 7 8 9 10 11 11 12 13 12 12 13 12 11 14 18 17 16 17 15 10 10 13 12 9 10 12 14 16 19 20 21 23 27 27 25 27 31 31 29 30 30 30 29 28 27 25 22 23 25 18 11 13 14 15 19 20 18 15 15 16 20 22 22 24 27 26 24 26 28 29 32 36 38 37 36 36 37
5 5 4 4 5 7 6 6 7 7 7 8 8 9 10 12 13 15 13 11 12 14 13 13 17 19 18 19 18 14 13 13 11 8 8 10 13 16 19 20 21 22 25 26 26 29 32 31 30 30 29 30 31 31 28 25 21 19 18 16 9 3 2 4 8 11 13 14 12 8 6 4 4 8 16 21 21 21 20 21 26 32 36 36 35 35 36
6 5 4 4 6 6 5 5 5 5 8 9 9 9 12 14 16 16 14 12 13 16 16 14 15 18 18 19 18 17 16 15 11 8 7 9 11 14 17 20 22 23 24 24 25 28 31 31 29 29 29 29 30 31 29 24 18 14 12 11 7 1 1 3 5 6 6 11 17 19 18 17 14 11 13 14 14 17 18 16 17 22 27 30 31 32 34
6 5 4 4 5 5 5 4 4 5 8 10 9 10 13 15 16 15 15 14 15 16 16 15 15 15 17 18 18 17 17 15 12 8 7 8 9 13 17 21 22 22 21 21 22 26 29 30 28 28 29 29 30 32 30 22 15 12 10 7 4 3 5 7 10 11 10 11 14 17 20 23 24 23 17 11 10 13 17 18 18 18 18 21 24 26 30
5 6 6 5 5 5 5 6 6 6 7 9 10 12 12 13 13 12 12 12 13 13 14 15 15 14 13 16 17 15 14 14 11 8 8 9 10 13 17 19 20 20 18 18 21 25 27 28 27 26 29 32 33 34 31 20 11 10 11 7 4 7 11 13 13 15 18 19 19 18 17 15 15 18 21 17 13 13 14 14 17 19 18 17 19 20 22
3 5 7 6 6 7 7 6 6 5 5 7 10 11 10 9 10 10 10 11 11 11 12 13 15 14 13 15 16 13 11 10 7 7 7 8 10 12 15 17 18 18 16 16 20 24 26 26 25 26 31 37 37 35 30 19 10 9 11 9 6 5 9 13 14 13 15 17 17 17 18 17 15 16 20 21 21 21 18 16 17 20 20 19 18 17 18
2 3 4 4 4 5 5 4 4 4 3 5 8 8 8 8 8 9 9 10 10 10 11 12 14 14 13 15 16 14 12 12 8 7 7 8 9 11 14 16 15 14 13 15 19 23 25 25 24 26 34 40 38 34 28 19 13 12 13 12 9 7 5 7 10 13 15 16 17 19 19 18 18 22 25 26 26 29 29 27 25 23 23 23 21 20 20
2 1 1 2 2 4 4 2 3 3 2 3 5 7 8 8 9 9 9 9 9 10 12 13 13 13 14 15 15 15 15 15 13 9 9 9 10 10 11 12 12 11 12 15 19 22 24 26 26 29 36 40 38 34 28 22 18 16 17 16 13 9 7 6 4 11 15 16 19 22 22 21 23 27 30 31 31 33 34 33 30 26 25 23 21 20 22
3 2 2 2 2 4 5 3 1 1 2 3 5 6 7 8 9 9 9 9 10 11 13 13 13 14 15 16 16 16 15 15 15 14 13 9 6 5 6 10 12 11 12 15 19 22 25 27 28 32 36 38 38 35 27 20 18 18 18 18 16 13 10 8 2 9 17 18 18 20 22 26 29 32 32 32 33 33 32 31 28 25 23 20 18 19 22
2 2 2 3 3 3 4 4 3 2 2 2 3 5 6 8 8 9 10 11 11 11 12 12 14 17 17 16 15 14 13 13 15 13 7 2 3 6 9 11 12 11 11 14 20 23 25 26 29 32 34 36 36 33 25 18 16 18 18 19 19 17 15 13 11 8 10 13 13 14 17 21 24 25 23 22 23 24 24 25 25 23 21 19 17 18 21
1 2 2 2 2 2 3 3 3 2 2 2 3 4 7 10 10 10 12 12 11 11 13 15 18 20 18 15 13 12 10 10 9 3 4 8 9 10 12 13 13 12 12 15 21 24 26 28 29 30 31 33 35 30 23 20 17 17 19 21 21 20 18 18 19 19 16 13 12 12 13 13 13 13 15 17 19 21 21 23 26 27 26 23 19 18 19
2 2 1 1 2 3 3 3 4 3 2 2 3 4 7 11 12 13 15 14 14 16 18 19 20 19 15 12 10 8 6 6 2 6 11 11 11 13 15 16 15 14 13 17 23 26 27 28 28 28 28 32 34 30 24 22 20 20 21 22 23 22 20 21 23 24 22 21 20 20 21 22 21 21 23 26 28 27 25 23 24 26 28 28 26 25 24
3 1 2 0 3 3 3 3 4 3 3 2 3 4 7 11 14 15 16 17 18 20 21 19 17 13 7 0 2 3 6 5 4 10 13 14 15 17 17 16 15 14 13 16 24 29 28 26 25 25 26 29 32 31 26 23 21 22 24 24 23 22 22 23 25 25 24 23 23 22 22 25 26 26 27 31 33 33 31 28 26 26 27 28 30 31 30
2 0 3 1 3 3 4 4 6 6 5 3 2 5 8 11 14 17 18 18 20 22 22 19 16 14 11 10 12 13 13 11 9 11 14 15 16 18 18 16 15 14 12 14 22 27 27 25 23 23 25 28 29 28 25 23 22 23 24 25 25 23 23 25 28 27 26 26 25 24 24 26 26 25 26 29 31 32 31 30 29 28 27 27 28 29 29
1 2 2 1 2 4 5 5 6 8 7 4 2 4 8 11 14 17 19 19 21 23 22 20 17 16 14 13 15 17 15 15 14 14 15 15 15 16 16 15 16 16 14 15 20 23 24 23 23 24 25 26 26 25 23 23 25 26 25 26 26 25 24 25 26 26 25 26 26 26 27 28 28 28 27 28 29 30 30 30 31 30 29 28 29 29 29
5 3 3 2 2 4 5 6 7 9 9 6 4 3 6 10 14 16 18 19 22 25 24 20 17 16 15 14 14 14 16 18 19 18 16 15 15 15 14 15 18 18 16 17 20 22 22 22 23 24 25 25 24 23 23 24 26 29 28 27 26 26 25 26 26 26 25 25 25 25 26 27 29 30 30 29 30 31 30 29 30 31 30 29 29 30 30
6 3 2 3 3 4 5 5 6 8 10 8 6 4 4 8 13 15 17 19 21 23 23 20 16 14 15 14 12 12 16 20 22 21 18 17 16 14 13 15 19 20 19 19 20 21 22 24 25 25 25 25 23 23 24 26 28 29 30 30 30 29 27 26 25 24 24 25 25 24 24 25 26 27 29 31 32 33 32 30 29 29 30 31 31 31 31
7 5 2 3 4 5 5 6 6 8 9 9 6 6 6 8 11 13 15 18 20 21 22 21 18 16 15 15 15 15 17 20 22 22 20 18 15 12 10 12 17 20 20 22 22 22 23 26 27 26 26 25 24 24 27 29 30 30 31 31 32 32 30 29 28 26 25 25 25 24 24 24 25 25 27 29 30 31 32 32 30 29 29 30 32 32 33
9 8 5 4 4 4 5 6 8 8 8 9 6 6 8 9 11 12 13 16 18 19 20 22 22 20 18 18 19 19 19 19 20 22 22 20 16 12 9 11 17 20 20 22 25 26 26 28 29 28 26 25 25 27 30 31 31 32 32 31 31 31 29 28 29 29 28 28 27 25 24 25 25 25 26 27 27 27 29 31 31 30 29 29 31 32 34
11 9 6 4 4 3 4 6 7 5 4 6 7 7 8 8 9 11 13 15 17 19 20 21 22 21 20 19 19 19 18 17 16 17 19 19 19 17 14 13 16 19 19 21 25 28 28 28 29 28 26 25 25 28 31 32 32 32 32 31 30 30 28 26 27 28 29 30 29 27 26 25 25 25 26 27 27 26 26 27 29 31 31 30 30 31 32
13 8 5 5 4 2 3 5 5 1 1 2 7 9 9 9 9 10 12 14 16 18 19 19 20 20 20 20 19 18 18 18 16 14 14 14 16 19 20 18 17 18 19 20 23 26 28 28 28 27 27 28 27 28 30 31 30 30 31 31 30 30 28 27 28 29 28 28 28 28 27 27 27 26 26 26 27 28 28 28 28 29 31 31 31 30 29
12 9 8 7 5 4 5 5 3 2 1 3 8 11 12 10 10 11 12 13 16 17 18 18 19 19 20 19 19 19 19 20 19 17 13 10 10 14 18 19 18 19 21 22 23 25 27 28 28 27 27 28 29 29 28 28 27 28 29 30 31 30 28 28 29 30 29 29 29 29 29 28 28 28 27 27 28 29 30 30 30 30 30 31 31 30 29
13 11 10 8 6 5 4 2 1 3 5 7 9 10 11 10 10 11 11 13 15 17 17 18 19 19 20 19 18 17 18 20 22 21 19 15 14 15 17 17 18 20 23 25 26 26 26 27 28 28 27 27 29 30 29 28 27 27 27 28 29 29 29 28 28 29 29 28 28 29 29 29 29 29 28 29 29 29 30 32 32 32 32 32 33 33 32
13 14 12 9 7 5 3 2 3 6 7 7 5 6 8 10 10 11 12 13 15 17 18 18 19 20 21 21 19 17 16 17 19 20 21 20 19 18 18 18 18 20 22 24 27 28 28 27 28 27 26 26 28 30 30 29 29 28 28 27 27 27 27 28 28 28 28 29 30 30 30 30 30 30 30 30 30 30 31 32 32 32 32 33 33 34 34
13 14 13 11 8 5 4 5 6 7 6 6 6 6 7 9 11 11 11 12 14 15 17 18 19 20 20 22 22 21 19 17 15 16 19 21 21 20 21 21 20 20 21 23 25 27 28 29 28 27 26 26 27 27 28 29 30 30 30 29 28 27 27 27 27 27 28 29 30 30 31 31 31 32 32 32 32 32 33 33 33 32 33 33 33 33 33
13 13 13 11 9 7 6 6 6 6 5 7 8 8 7 10 13 13 12 12 12 13 14 16 18 20 21 21 22 22 22 20 18 18 20 22 22 23 23 23 23 23 24 24 25 26 27 28 28 27 27 28 28 27 27 27 28 29 30 30 30 29 29 28 28 29 29 29 29 29 29 30 30 31 32 32 32 33 33 34 34 34 35 35 35 35 35
14 13 12 10 9 8 6 5 5 6 6 8 8 8 9 12 13 13 13 13 12 12 12 14 16 18 21 23 23 23 23 23 22 21 22 23 24 25 25 25 25 25 26 26 27 27 27 28 28 28 28 29 29 28 27 26 26 26 26 26 27 27 28 28 29 29 29 29 29 29 29 29 29 30 31 31 31 31 32 32 32 33 34 34 34 34 35
14 12 10 10 9 8 6 6 4 5 8 8 8 10 12 14 12 11 11 12 12 11 11 12 13 16 19 21 22 23 23 23 23 23 23 24 24 25 26 27 27 27 27 28 27 27 27 27 27 28 29 29 29 28 28 28 28 27 26 26 26 26 27 28 29 29 29 29 30 30 30 30 30 31 31 31 31 31 32 32 32 32 32 32 32 32 32
14 13 12 11 9 7 7 8 8 7 7 8 9 11 14 14 11 10 12 13 12 12 11 10 11 13 16 19 20 20 21 21 22 22 22 22 22 22 23 25 26 27 28 28 28 28 28 27 27 27 28 29 29 28 28 29 29 29 29 29 28 28 28 29 30 30 29 29 30 30 30 31 32 33 33 33 32 32 32 31 31 31 31 30 29 29 29
Wind_Direction
287 288 290 296 299 298 300 303 303 303 308 315 312 317 327 314 301 295 309 323 321 310 9 46 31 34 36 15 14 23 16 9 17 30 34 37 44 46 42 39 36 28 17 4 347 194 183 187 188 189 193 195 197 199 200 200 201 201 201 201 202 202 201 200 201 203 204 205 206 205 204 203 202 202 202 203 203 204 205 205 206 206 206 205 204 205 206
301 297 294 295 293 288 291 295 297 298 301 302 298 301 308 303 292 285 295 308 314 319 41 69 44 44 54 25 12 21 19 14 21 29 29 30 37 42 42 40 34 30 21 6 355 7 50 71 105 146 169 184 191 198 203 205 206 204 201 203 206 206 205 203 202 202 203 204 204 205 204 203 202 202 202 202 203 203 204 205 205 205 206 205 204 204 205
304 302 299 296 296 293 288 286 288 292 292 286 283 289 298 299 290 288 300 311 312 324 36 61 53 48 51 40 22 20 24 22 24 28 26 23 27 33 35 36 35 30 20 3 349 350 28 64 71 74 96 140 164 174 192 219 232 227 214 209 208 210 210 206 201 200 202 203 203 204 204 203 202 202 202 201 202 203 203 204 205 205 204 203 203 204 205
292 300 303 302 305 300 288 281 279 282 286 286 285 290 291 290 296 309 321 316 298 310 2 40 48 44 48 48 34 24 25 24 23 25 24 19 19 23 22 23 27 25 16 8 351 341 350 18 51 67 77 130 173 178 185 200 222 260 274 253 226 216 213 207 202 201 202 202 204 204 204 204 203 202 202 201 201 202 202 202 203 203 204 203 202 203 204
285 297 303 311 315 301 282 276 271 266 278 288 287 279 274 273 282 299 295 290 335 341 349 43 46 43 53 54 44 30 22 20 23 23 20 15 11 16 18 15 12 8 2 356 342 336 340 343 343 352 11 305 218 205 203 203 201 212 253 278 276 256 231 211 202 202 203 202 204 205 205 204 203 202 201 201 201 201 201 201 201 202 203 203 201 202 204
280 297 305 312 307 285 277 286 281 277 294 305 304 298 295 290 285 287 286 324 21 11 11 43 38 43 63 62 52 41 26 18 19 19 18 13 6 8 13 11 5 356 344 337 335 342 347 339 332 326 306 258 244 242 234 220 205 203 214 230 254 276 263 228 207 201 203 204 204 205 205 204 204 203 202 202 202 202 201 200 200 201 202 203 202 201 203
280 302 314 305 271 257 281 295 302 312 319 332 331 317 330 8 5 344 338 12 44 33 21 29 21 32 66 65 53 41 31 22 14 12 13 10 3 2 3 2 357 349 342 338 338 344 344 337 331 323 303 263 232 225 221 215 210 211 216 215 216 226 234 230 214 202 201 204 204 205 205 204 204 204 204 205 204 202 201 200 200 201 202 203 203 202 203
269 278 224 246 267 280 293 293 299 310 317 354 354 316 338 32 27 12 11 24 40 33 15 15 4 348 45 72 57 37 30 25 15 9 8 5 0 358 356 353 347 343 342 338 335 333 328 322 317 314 306 294 264 228 218 218 215 213 216 218 216 212 212 218 215 204 200 202 202 203 204 203 204 204 205 206 205 203 202 201 201 202 202 203 204 203 203
228 247 230 251 286 297 288 280 290 317 325 36 60 294 346 27 17 8 15 22 30 28 11 4 350 323 327 74 52 27 22 20 14 8 3 359 358 353 348 345 341 338 337 333 327 322 318 316 314 312 310 311 309 286 232 221 221 217 212 214 218 214 211 215 214 204 199 200 200 201 202 202 203 204 205 206 206 204 203 202 202 203 203 203 205 204 204
217 254 257 255 270 272 269 292 329 341 335 342 85 227 312 18 10 3 10 16 22 24 10 355 341 322 338 57 31 14 13 9 5 4 359 356 357 353 346 343 340 337 335 331 327 325 322 321 321 319 317 315 311 301 267 225 218 217 213 214 218 217 215 217 214 205 200 199 198 199 200 201 203 204 205 205 205 205 204 203 203 203 203 204 205 206 207
236 247 245 238 246 249 297 344 342 336 327 325 321 273 269 358 356 356 3 7 14 23 14 359 353 358 29 23 355 358 4 1 359 359 353 350 352 351 346 341 338 334 331 329 328 328 327 325 324 323 321 317 310 301 287 256 223 213 212 214 217 219 220 220 213 205 201 199 198 198 200 201 203 204 204 205 205 205 206 205 205 204 204 204 205 207 209
234 236 237 247 251 260 351 342 337 332 324 317 302 256 262 345 340 348 3 359 2 16 13 7 16 24 16 343 335 338 341 351 1 360 354 349 348 347 344 339 335 332 331 330 329 327 325 323 322 321 318 313 306 299 291 275 246 224 220 219 218 218 222 220 212 205 202 200 199 199 200 200 202 203 204 204 205 206 206 206 206 205 204 205 206 207 209
247 237 234 253 255 349 349 332 331 333 322 307 271 244 305 313 317 338 356 349 350 6 9 13 24 7 342 333 332 331 332 340 353 357 355 349 344 344 341 336 333 331 330 329 326 320 319 320 319 319 318 311 302 297 293 282 266 251 240 231 225 221 220 218 211 206 203 202 201 200 200 200 201 203 204 204 204 205 206 206 206 206 205 204 206 209 209
277 244 238 253 236 79 344 326 326 345 325 282 238 313 296 285 313 341 345 340 348 355 354 358 358 339 335 333 329 329 332 335 339 347 352 349 343 342 339 333 332 331 328 325 323 319 319 319 317 316 316 310 302 298 293 285 278 271 258 242 232 226 220 214 209 205 203 202 201 200 200 199 199 202 203 204 204 204 205 206 206 206 205 204 205 207 210
301 257 245 246 228 11 354 339 345 36 1 283 289 313 307 309 332 338 330 336 350 350 344 342 335 330 330 323 318 323 326 327 332 341 347 344 338 335 334 331 330 329 326 324 323 320 318 317 316 315 314 308 302 297 291 286 283 279 270 253 236 226 219 212 206 204 203 201 200 199 199 198 198 201 202 203 204 204 204 205 206 206 206 204 203 205 207
252 257 252 233 215 330 352 343 331 347 335 302 295 302 307 319 331 333 333 340 345 343 337 330 323 322 319 311 313 319 316 317 328 341 343 338 333 329 326 325 326 326 325 324 322 319 320 321 317 314 310 306 300 294 290 288 285 280 275 261 239 224 218 212 206 203 201 200 199 198 198 198 198 199 201 202 203 204 204 205 205 206 206 204 202 203 205
235 253 264 266 237 276 317 305 315 333 332 325 317 312 311 318 325 333 337 334 333 333 327 320 316 314 310 307 310 311 308 310 320 339 339 330 324 321 317 318 323 325 323 321 318 315 318 323 322 315 309 303 296 291 291 291 290 288 281 263 239 224 218 212 206 202 199 197 197 197 197 196 197 198 199 200 202 203 204 205 206 206 207 206 204 202 203
266 254 260 268 279 340 321 308 313 339 330 327 331 326 320 317 318 322 324 320 321 321 314 307 303 300 300 303 303 301 301 301 307 331 332 319 315 314 312 314 321 325 323 319 317 315 316 322 324 318 312 306 294 289 293 295 296 295 286 262 237 223 217 212 206 200 196 195 195 196 197 197 198 199 198 199 201 203 203 205 207 208 207 207 206 205 204
304 278 269 307 358 336 312 303 316 342 335 330 332 323 314 311 310 308 307 307 308 306 302 299 296 294 297 301 301 299 296 293 298 319 318 310 311 312 310 311 317 322 322 319 318 318 318 321 323 318 313 308 297 290 293 295 297 297 285 256 231 220 214 208 202 197 194 193 193 194 195 197 199 200 200 201 202 203 204 206 207 209 208 207 207 207 206
259 259 267 336 346 312 292 314 8 349 334 326 319 309 304 306 305 299 297 300 301 301 301 299 298 299 299 298 298 296 289 287 293 302 303 304 308 310 310 312 317 322 322 318 316 315 315 319 321 317 312 307 299 292 293 295 298 301 283 248 225 216 209 203 197 194 193 192 191 192 194 196 198 200 201 202 205 206 207 207 207 207 207 207 208 208 207
262 257 272 353 341 306 291 355 352 332 326 322 314 309 304 301 298 295 296 298 296 297 299 297 296 295 292 289 290 290 288 286 282 284 296 301 305 311 313 313 316 323 325 319 312 313 317 320 320 317 312 307 298 293 296 298 305 308 285 242 221 214 207 199 195 194 193 193 192 191 193 196 198 201 202 204 209 212 213 212 211 211 209 208 208 209 208
259 265 23 28 328 292 293 321 322 319 320 314 307 305 303 299 297 296 297 297 294 293 293 293 293 291 288 286 286 285 286 285 278 282 295 299 305 313 314 312 316 323 326 321 316 320 325 324 321 319 317 312 303 297 301 303 310 315 294 242 215 209 204 197 195 194 193 193 193 192 193 195 197 200 202 204 208 213 216 216 215 215 214 213 212 210 210
260 304 11 80 248 272 282 296 304 309 312 307 303 302 300 297 295 293 293 295 295 294 292 291 292 292 291 291 289 284 286 283 276 278 289 296 306 314 314 313 316 322 327 327 326 328 331 330 326 324 323 320 315 311 311 310 313 318 309 267 219 208 204 200 197 195 194 194 193 193 193 195 196 196 196 201 208 211 213 215 215 215 216 217 217 216 214
266 279 267 199 224 256 268 285 297 300 298 295 295 296 296 295 294 292 291 291 291 292 291 289 289 288 288 290 288 282 282 280 271 269 283 294 306 312 312 312 316 321 327 329 331 333 333 331 329 327 325 325 325 324 322 320 317 318 317 305 258 221 210 199 192 191 190 190 194 200 202 199 198 196 192 193 202 210 213 213 211 212 215 217 218 218 218
239 243 220 209 237 253 262 275 281 284 290 297 298 295 294 296 293 290 288 288 288 288 287 285 285 285 288 290 289 283 279 275 264 259 278 295 305 310 310 312 316 322 324 325 332 337 334 329 329 331 330 328 328 327 327 325 323 320 318 316 310 278 227 185 173 178 182 181 185 208 234 240 256 235 214 202 196 197 203 208 207 207 210 214 216 216 216
227 232 219 226 243 249 256 266 272 283 295 300 300 296 296 298 297 293 289 286 285 283 280 280 285 288 290 291 287 281 277 272 262 253 264 285 299 306 307 310 315 321 322 324 332 337 332 327 329 332 331 329 329 330 330 328 326 326 322 315 314 306 186 217 214 207 208 202 195 192 191 192 198 219 242 244 221 193 182 182 190 198 203 207 210 211 210
224 210 203 233 251 246 239 246 265 288 298 300 299 298 300 302 303 299 293 288 285 283 283 288 291 293 294 294 292 288 281 271 255 240 245 262 283 300 307 311 316 321 322 324 332 334 331 330 331 330 329 331 333 336 337 334 329 331 330 316 289 209 177 197 214 216 228 242 231 209 194 190 188 186 194 222 238 214 195 183 178 182 190 196 201 204 205
216 188 187 217 248 250 243 246 257 275 295 306 304 301 304 309 310 306 300 296 294 294 296 297 297 296 299 300 300 299 291 275 250 223 232 259 282 301 307 311 318 323 322 324 332 335 333 330 329 329 331 336 340 342 343 344 345 344 344 336 293 233 209 204 204 201 203 212 216 207 194 185 177 174 177 183 193 208 217 209 189 181 183 187 190 194 198
207 188 195 213 232 242 243 247 260 273 300 318 314 309 311 319 319 313 308 306 304 301 299 299 297 296 297 297 295 296 297 289 256 214 228 268 291 302 305 309 317 324 326 328 336 339 335 329 328 333 339 341 343 343 345 353 14 14 1 355 343 295 237 221 208 189 184 191 195 190 182 174 167 170 177 180 179 182 197 215 209 191 182 181 181 180 183
230 197 195 211 242 257 252 240 247 266 301 329 327 321 321 323 322 314 310 309 307 302 299 299 296 294 292 290 290 292 299 303 285 239 242 282 297 294 300 311 322 330 335 339 342 341 335 330 332 341 345 344 341 340 349 8 31 31 22 15 10 5 332 269 225 190 175 174 176 176 177 175 173 177 181 184 182 180 186 201 206 194 181 178 177 174 172
275 259 226 247 284 305 309 272 236 260 309 339 341 335 328 324 320 315 312 312 309 306 306 302 296 292 288 286 286 288 294 299 291 262 252 276 288 289 302 321 332 336 339 345 348 345 339 336 340 347 349 345 340 340 355 19 32 32 32 30 23 18 5 335 254 196 187 179 171 173 178 181 182 184 184 183 183 184 185 190 190 183 176 174 173 171 167
278 282 292 308 319 326 328 321 293 322 341 349 353 345 330 320 320 319 317 315 312 309 309 305 298 292 287 284 285 286 288 293 290 272 254 257 279 310 339 346 345 343 343 349 355 353 346 343 345 349 351 349 343 343 355 18 30 32 37 38 34 32 28 19 46 177 183 179 171 173 181 184 185 188 190 189 188 187 183 176 170 166 164 159 156 157 156
298 289 293 309 317 319 324 329 350 13 1 345 354 351 331 322 323 321 315 314 312 307 304 303 300 295 287 281 279 278 279 287 287 275 253 209 43 28 17 4 355 348 346 355 2 1 354 349 348 350 354 353 347 348 1 22 32 35 41 45 45 48 49 45 51 90 136 148 153 169 182 184 184 188 190 188 184 178 167 154 146 142 137 132 136 148 150
220 216 238 270 293 309 323 330 344 17 17 343 358 8 349 338 333 326 322 321 315 307 304 300 296 291 283 273 269 267 270 279 280 261 102 77 54 37 27 17 6 354 350 0 7 5 0 357 354 353 358 358 352 355 15 35 37 38 46 49 49 51 55 57 59 62 67 78 98 119 131 132 136 143 145 142 139 137 135 133 132 129 123 119 124 138 145
225 223 205 299 317 332 354 348 347 21 44 359 2 24 6 347 338 334 334 332 323 314 309 301 295 290 278 258 249 253 270 281 238 127 101 75 54 43 33 22 10 360 356 4 9 6 4 3 358 355 1 6 2 4 22 39 40 42 48 52 51 51 53 59 64 65 65 69 79 91 99 100 100 103 109 112 111 110 107 108 113 117 117 117 119 123 130
244 232 125 162 309 339 28 12 356 33 80 50 6 30 20 358 345 338 335 334 329 326 323 318 317 324 331 347 123 50 12 7 86 117 104 80 59 46 36 25 13 3 0 6 9 8 6 5 1 359 6 13 12 12 23 37 42 45 51 53 52 50 52 57 61 62 63 68 73 80 90 97 99 100 101 102 104 104 103 102 103 106 110 113 116 117 118
267 342 117 151 307 352 43 28 11 38 74 82 33 33 30 12 354 342 339 341 341 339 338 339 346 358 15 39 55 52 35 27 55 90 93 80 64 48 37 26 15 10 10 12 11 8 6 7 9 9 13 18 19 20 26 37 45 48 51 54 53 50 51 56 60 58 58 61 65 68 75 81 84 86 90 95 99 103 105 107 108 109 109 110 112 112 110
101 40 67 78 5 18 36 35 30 42 62 81 61 32 31 25 8 352 346 349 352 351 349 351 360 9 15 28 47 50 37 30 44 62 73 77 70 55 40 26 15 12 13 15 16 14 9 11 18 20 17 19 26 29 33 42 50 52 51 52 53 52 52 56 59 60 60 62 66 69 72 74 74 74 76 82 88 94 99 103 105 106 106 106 106 106 106
99 56 12 11 42 39 31 31 40 42 46 60 75 47 28 29 23 7 356 355 359 359 356 355 2 15 20 27 43 49 40 36 42 46 51 61 66 59 47 31 19 16 16 16 19 20 16 17 25 27 23 23 32 39 42 47 54 56 54 52 52 53 54 57 59 60 61 62 64 66 70 75 78 79 79 80 83 85 88 92 97 99 100 100 101 102 103
114 107 342 352 38 45 26 27 49 51 41 46 73 86 48 35 33 23 8 1 2 4 2 359 5 20 24 23 32 47 50 48 46 43 43 49 53 51 43 28 20 21 23 21 21 23 24 26 30 33 31 32 38 46 51 55 58 58 56 54 53 53 53 55 57 59 61 63 64 64 67 72 78 83 86 87 87 87 86 86 88 92 94 96 98 99 100
132 137 115 37 45 37 12 13 46 55 36 29 56 92 80 51 44 37 21 7 4 7 8 9 14 21 23 23 31 44 54 56 53 49 47 47 44 42 37 25 19 21 25 26 27 29 32 34 35 36 37 39 45 52 58 60 61 60 58 57 56 56 54 52 52 53 56 61 64 66 69 72 76 80 84 87 90 93 95 93 90 89 91 95 98 100 100
134 134 126 100 75 41 17 27 48 49 23 8 28 83 91 67 51 48 38 23 14 12 14 17 21 24 27 31 36 41 47 55 57 55 53 50 44 39 32 22 22 25 28 30 32 34 35 36 37 37 38 41 48 57 62 62 61 61 61 59 57 56 53 50 50 52 55 58 61 63 68 72 74 77 81 83 85 89 94 97 97 96 95 96 99 102 103
116 119 118 109 91 50 41 59 66 56 8 359 19 59 90 86 63 53 48 37 26 20 18 20 24 27 30 36 40 41 40 43 50 57 60 57 51 46 39 31 29 32 33 33 34 37 38 38 39 39 40 42 47 56 62 63 61 61 62 60 58 57 54 51 51 52 53 54 55 57 61 66 70 74 79 82 84 86 88 91 95 97 98 97 98 100 102
107 109 108 107 97 62 66 83 80 48 287 19 39 50 71 89 82 66 58 50 41 32 25 23 26 30 32 36 40 40 35 33 37 48 59 60 53 47 43 40 38 38 37 36 38 40 40 41 42 44 46 49 51 55 60 63 62 62 62 61 60 59 57 56 56 56 54 53 54 57 61 65 69 73 77 80 84 86 87 87 88 92 96 98 98 99 101
119 120 115 110 97 63 60 69 48 326 317 82 62 52 58 75 83 75 67 62 55 45 34 28 31 35 36 38 42 43 40 38 38 40 46 52 49 43 42 41 42 43 42 41 41 43 44 45 45 46 48 52 55 57 60 62 64 64 64 64 63 62 60 60 61 62 60 59 59 61 64 67 70 73 77 80 83 85 87 88 88 88 90 92 94 96 98
129 122 112 103 93 79 71 75 28 12 43 67 68 54 52 67 83 83 76 70 65 58 48 40 39 41 42 44 46 46 45 45 44 44 46 49 50 48 47 47 47 47 46 44 43 43 44 46 48 49 49 52 56 58 59 62 65 66 65 65 65 66 66 66 67 67 68 67 67 67 68 70 72 74 77 80 83 84 86 87 88 88 88 89 90 90 92
126 119 110 97 85 73 39 13 44 52 50 56 67 57 51 63 83 94 91 81 73 66 58 50 47 48 49 50 48 45 43 46 47 47 49 53 54 52 50 49 48 48 48 47 45 44 44 46 48 50 51 54 57 59 59 59 63 66 67 67 68 69 70 71 71 71 71 72 73 74 74 74 74 75 77 79 81 83 84 85 86 86 87 88 88 89 90
119 119 121 121 114 98 47 22 39 51 48 47 56 57 53 60 74 89 97 92 81 72 65 58 54 53 54 54 54 52 51 53 54 51 50 52 54 52 51 50 50 51 51 50 48 46 46 46 47 49 51 54 57 58 59 59 61 64 67 69 70 71 72 73 75 77 77 77 77 78 78 77 77 77 78 78 79 80 82 84 84 85 85 87 87 88 89
122 118 118 119 113 101 78 45 29 24 34 48 51 46 50 60 63 66 73 78 77 73 69 63 59 57 57 58 58 57 56 56 57 54 51 51 51 51 51 51 52 52 53 52 50 47 46 46 47 49 52 55 56 58 60 62 63 64 66 69 71 72 73 75 77 80 82 82 81 80 80 81 81 81 81 81 81 82 83 84 85 86 87 88 88 89 90
111 106 105 105 103 100 96 75 35 20 33 47 44 37 50 64 64 59 61 70 75 76 75 70 65 63 63 63 61 59 58 56 56 55 53 52 51 50 49 50 51 51 52 53 52 49 48 48 48 49 52 55 56 57 59 62 62 61 62 64 68 71 74 76 78 79 81 82 81 81 82 83 84 85 85 84 84 85 85 86 88 90 91 91 91 92 94
120 122 124 124 122 121 122 118 95 56 46 45 40 43 57 68 67 60 63 71 77 80 79 75 70 68 68 67 64 61 59 59 58 56 54 53 52 51 52 52 53 52 52 53 53 53 53 52 51 52 54 56 56 57 59 62 64 64 63 63 64 66 71 75 77 78 79 80 80 80 82 83 85 86 86 86 87 88 88 88 88 89 89 90 91 93 96
131 129 124 119 115 112 115 123 123 101 71 55 49 55 65 72 69 61 62 70 77 83 88 89 84 78 75 75 73 68 64 63 63 61 59 56 54 54 55 56 55 55 55 56 57 57 57 56 55 56 57 59 60 61 62 64 65 67 68 69 68 69 72 76 78 79 79 80 80 81 82 84 86 87 87 87 88 88 89 89 89 90 91 92 93 95 96
Height
803 799 797 794 794 794 789 787 783 774 770 771 773 774 773 770 780 782 765 758 762 753 742 742 739 735 735 733 728 725 722 720 718 717 717 715 715 717 718 719 720 721 721 717 713 710 708 710 711 713 717 721 725 729 733 737 741 743 747 749 751 753 755 755 757 759 763 767 770 774 777 778 781 783 785 789 791 794 796 799 801 804 805 807 809 811 813
806 801 797 793 793 793 789 787 784 778 774 773 771 770 769 769 771 768 760 759 757 748 742 741 737 732 732 733 731 728 727 727 726 727 727 725 726 726 726 726 727 727 727 725 723 719 716 716 717 718 721 724 727 732 735 738 741 743 745 748 749 751 751 751 753 757 760 764 767 770 773 774 777 779 781 784 787 789 792 794 797 800 802 804 806 808 809
813 805 798 795 794 793 790 787 783 780 777 773 770 768 767 769 768 761 758 761 758 747 740 737 734 730 731 736 737 735 734 734 733 734 734 732 732 732 732 732 733 733 732 731 730 728 723 719 719 720 723 725 727 730 734 739 744 747 748 748 748 750 750 751 753 756 758 761 764 766 768 770 772 775 777 780 782 785 787 790 793 796 798 800 801 804 806
821 808 803 801 795 792 793 789 785 783 779 774 770 768 767 768 768 764 764 767 759 745 737 738 738 733 735 741 743 740 739 739 738 739 740 738 738 738 737 736 736 737 738 738 739 738 731 724 722 721 722 724 726 726 729 733 740 749 754 754 752 751 751 752 754 755 756 758 761 763 764 767 769 771 774 776 778 781 783 785 789 791 794 795 797 800 802
824 812 809 806 803 807 805 791 781 779 776 771 768 767 765 762 763 767 769 764 755 743 738 741 743 740 742 747 748 746 745 744 744 745 744 744 743 742 742 741 740 740 740 740 741 740 734 729 727 723 721 723 725 727 729 730 733 741 750 756 759 757 754 753 752 753 756 756 758 760 761 763 766 768 770 772 774 776 778 781 784 787 789 792 793 796 798
827 817 811 812 819 824 809 782 770 772 772 773 774 770 765 760 758 758 757 755 755 753 748 748 748 746 747 750 751 750 748 747 748 748 748 748 746 745 746 746 745 743 739 737 736 734 731 729 727 724 721 720 722 726 731 733 731 733 739 746 754 759 760 756 751 751 754 754 755 757 759 761 764 765 767 768 770 772 774 777 780 782 785 788 789 792 793
826 819 819 829 832 819 795 775 769 770 770 773 774 770 766 767 766 763 760 760 762 761 757 754 751 748 748 750 751 752 751 750 750 750 750 750 749 748 747 747 747 745 741 737 732 730 732 732 730 729 725 721 722 724 728 729 729 730 733 736 741 747 751 752 750 747 748 750 752 754 756 758 760 762 764 765 767 769 771 773 775 777 780 783 785 787 789
825 824 829 834 823 800 787 781 775 772 772 775 778 776 771 771 773 772 770 768 765 762 761 757 752 749 747 749 752 754 755 754 753 753 753 752 751 750 749 749 749 747 745 742 737 734 736 735 733 731 728 724 723 723 723 724 725 728 731 732 734 736 738 742 743 742 742 745 747 750 752 755 756 758 760 762 764 766 768 770 772 774 776 778 780 783 785
822 826 828 822 812 803 797 789 779 775 776 778 783 786 781 776 775 774 772 772 770 768 766 760 755 750 747 751 756 757 756 757 757 756 755 753 753 751 750 750 749 748 747 745 740 737 735 732 729 728 726 723 722 722 722 722 722 725 726 726 729 731 732 734 737 737 737 739 742 745 748 749 751 753 755 758 761 763 765 767 768 770 772 774 776 779 781
820 825 827 824 823 816 803 792 785 781 779 776 777 784 785 782 780 776 774 775 775 773 771 765 758 752 752 760 764 761 760 760 759 758 756 754 753 752 751 749 747 746 745 742 739 736 732 728 726 725 724 722 721 721 721 721 721 722 722 722 723 725 727 729 731 732 732 734 736 739 742 744 746 749 751 754 756 759 761 763 764 766 768 771 773 775 776
825 827 829 827 824 812 801 798 795 790 786 779 776 785 791 789 785 779 776 777 777 776 775 770 764 762 766 772 770 764 764 764 761 760 759 756 755 754 753 752 749 746 744 740 737 734 731 728 726 724 723 722 720 719 717 717 718 719 718 717 717 719 722 724 726 727 728 730 731 733 735 738 741 744 747 750 753 755 757 759 761 763 765 767 769 770 772
828 828 828 822 812 804 803 804 799 793 789 784 787 797 798 791 787 783 779 779 778 777 777 775 774 776 780 779 773 766 764 764 763 763 762 759 757 754 754 754 752 749 745 742 738 735 732 730 726 724 723 721 719 717 715 714 714 714 714 713 713 715 718 720 722 723 724 725 726 727 730 733 736 740 743 746 749 751 753 755 758 760 761 763 765 766 768
827 827 828 820 809 806 809 806 799 794 791 791 799 805 800 793 790 785 781 781 779 777 778 779 780 781 779 776 772 768 765 765 764 764 763 762 759 756 755 755 752 749 746 742 740 736 733 730 727 724 723 721 718 715 713 712 710 709 710 711 711 712 714 715 717 718 718 720 721 723 726 729 733 736 739 742 744 747 749 752 754 755 757 759 761 763 765
827 825 824 819 812 811 811 805 798 796 799 803 804 802 797 793 790 784 783 783 780 779 779 780 780 780 777 775 773 770 768 767 765 764 763 762 759 757 756 756 753 750 745 741 739 737 733 730 726 723 722 720 716 713 711 709 707 706 707 708 708 708 709 709 711 713 714 715 717 720 722 725 728 731 734 737 740 743 745 748 749 751 753 754 756 759 760
829 825 821 818 815 812 810 806 802 802 807 810 805 800 795 791 787 785 785 783 781 781 781 780 780 779 778 777 775 772 771 769 767 765 764 762 760 758 756 756 754 750 746 741 738 736 733 730 726 723 721 718 714 711 707 704 703 703 703 703 703 703 703 704 705 707 709 711 713 716 718 720 723 727 730 733 736 738 741 743 745 747 749 750 752 754 756
831 828 819 814 815 813 810 810 809 807 807 805 802 801 797 790 788 787 786 784 783 783 782 781 781 780 779 778 776 773 771 769 767 765 763 761 760 758 757 757 754 750 746 742 737 734 732 730 726 723 721 718 713 708 703 699 698 699 699 698 698 697 698 698 699 701 704 706 709 711 713 716 719 722 725 728 731 734 737 739 741 743 744 746 747 749 751
826 824 815 809 811 811 808 808 807 805 804 802 800 800 797 792 790 788 787 788 786 784 783 783 781 779 778 777 775 773 771 768 767 766 764 763 762 760 759 757 754 750 746 741 736 732 728 727 724 721 719 717 712 706 700 696 695 694 694 693 692 691 691 692 693 696 698 701 704 706 709 712 714 716 720 723 726 729 732 734 736 738 740 742 743 744 747
819 815 809 806 808 808 806 806 805 803 803 802 799 799 797 794 791 789 789 789 786 785 785 783 780 779 777 775 773 772 770 768 766 765 765 765 764 762 760 757 753 748 744 740 736 730 725 723 721 717 715 714 709 703 698 694 692 691 689 687 685 684 685 686 688 690 693 696 698 701 704 707 709 711 715 718 721 725 728 730 732 734 735 738 740 741 743
820 816 808 805 808 809 807 805 803 802 802 801 800 799 798 794 792 790 789 788 786 785 784 782 779 778 775 773 772 770 768 767 765 764 765 764 763 761 759 756 752 747 742 738 735 729 723 720 718 714 711 708 704 700 696 692 690 687 684 681 679 678 679 680 682 685 687 689 692 696 699 702 705 708 711 714 717 720 723 725 727 729 732 734 736 738 739
820 815 807 805 809 808 804 803 804 803 802 801 799 798 796 794 792 790 787 786 785 784 782 781 779 776 774 773 771 768 767 765 763 763 763 763 761 759 756 753 750 746 742 738 733 728 722 717 714 711 707 704 700 697 694 690 687 684 679 676 673 672 673 675 677 679 681 684 687 691 694 697 700 704 707 710 712 714 716 718 721 723 726 729 731 733 736
816 810 807 809 810 806 802 802 804 803 803 801 799 797 795 793 791 789 786 785 784 783 781 779 777 775 773 771 768 766 765 763 761 760 760 760 760 758 754 751 748 744 741 737 733 727 721 715 711 708 704 700 697 693 691 687 684 680 675 671 668 668 668 670 672 674 676 679 682 685 689 693 696 700 703 706 709 711 713 716 719 721 723 725 727 730 732
815 809 809 813 815 812 807 805 804 803 802 801 799 796 794 792 791 788 786 784 782 781 779 778 776 774 771 769 766 764 762 760 758 757 757 757 757 756 754 751 746 742 739 736 731 726 720 714 709 706 702 697 693 691 688 685 681 678 673 668 665 664 665 666 668 670 672 675 679 682 686 689 693 696 699 703 706 709 712 715 717 720 723 724 726 728 730
812 808 809 812 815 814 809 805 804 803 801 800 799 796 794 792 789 787 785 783 781 779 778 776 775 772 769 767 765 762 760 758 756 754 754 754 752 752 753 751 746 742 738 733 729 724 719 714 710 706 701 696 692 689 686 683 680 677 673 667 663 662 663 664 665 667 670 672 675 678 681 685 689 693 696 701 704 706 709 712 715 718 720 723 725 726 727
808 806 807 809 811 810 807 804 803 801 800 799 797 795 793 790 788 785 784 782 780 778 776 774 772 770 767 765 762 760 758 756 753 752 752 751 750 749 748 747 745 740 735 731 728 723 719 715 711 706 701 697 692 688 685 681 678 675 672 668 665 663 664 664 665 667 670 673 677 681 683 686 689 691 694 697 701 704 706 708 711 714 717 719 721 723 724
806 805 804 805 807 806 804 802 801 799 797 797 795 792 791 789 786 784 782 780 778 777 774 772 770 767 765 762 760 758 756 754 752 751 751 750 749 747 746 744 742 738 734 731 727 722 719 716 712 707 702 697 693 688 684 680 677 674 672 669 666 664 664 665 665 667 668 670 675 682 688 692 696 700 700 698 698 701 704 706 708 710 712 714 716 718 720
801 801 802 803 804 802 801 800 798 796 795 794 792 790 788 786 784 781 779 778 776 774 772 769 767 765 763 761 758 756 754 752 750 749 749 749 748 746 745 743 740 737 734 730 726 723 720 717 712 707 703 698 694 688 682 678 676 673 672 669 667 665 664 664 665 667 669 671 673 676 679 684 690 697 704 706 705 703 703 705 707 709 709 710 712 714 715
798 798 801 803 802 799 798 797 795 794 792 791 790 788 785 783 781 779 776 775 773 771 769 767 764 762 761 758 756 754 751 749 747 747 748 748 747 745 744 742 738 736 734 731 727 725 721 717 713 708 704 699 693 686 681 677 674 672 671 670 668 666 664 663 663 665 670 676 679 678 678 678 680 685 695 705 711 711 709 706 705 707 708 709 709 710 711
795 795 798 799 798 795 793 792 791 790 789 789 787 785 783 781 779 776 774 772 770 768 766 764 762 760 759 757 755 752 749 746 745 745 745 745 745 744 742 740 737 734 732 730 727 724 721 718 714 709 703 697 690 685 680 676 672 671 671 670 669 667 664 662 662 663 666 672 676 677 678 680 682 685 689 696 704 712 716 714 709 706 707 708 708 709 710
792 793 794 794 793 791 790 789 789 788 787 786 785 783 781 779 777 775 773 771 769 766 764 762 760 758 757 755 753 751 747 744 742 742 743 743 742 741 740 739 736 733 730 729 726 723 721 719 714 708 701 694 689 685 680 675 672 672 672 671 670 668 665 663 663 664 666 669 672 673 675 677 680 684 688 692 696 703 711 716 713 708 706 707 708 708 708
789 790 791 790 790 789 788 788 788 787 786 785 783 782 780 778 776 775 772 770 767 765 762 760 758 756 755 753 751 748 746 743 741 740 740 740 739 739 739 737 734 731 729 728 726 723 721 719 713 706 699 693 690 687 681 676 673 672 672 672 671 669 667 666 664 664 666 667 669 670 673 675 677 679 682 686 689 691 696 704 708 706 704 705 706 706 706
788 788 789 789 788 787 787 786 786 786 785 784 783 782 780 778 776 774 771 768 765 763 760 758 756 754 753 751 748 746 743 741 740 739 738 737 737 737 737 736 733 730 728 728 726 724 721 717 711 704 699 695 692 688 682 677 674 673 672 671 670 669 668 668 666 665 666 667 667 667 669 670 672 673 674 676 679 680 681 686 694 699 700 702 705 705 705
788 787 788 788 787 787 786 785 784 785 784 783 783 782 780 778 776 773 770 767 764 761 759 756 754 752 750 748 745 743 741 739 738 737 735 735 735 736 735 734 732 730 729 728 726 723 720 716 710 704 701 698 694 688 684 680 677 675 673 671 670 668 668 669 668 666 665 666 666 667 667 667 667 668 669 669 671 673 673 677 685 693 697 701 704 706 707
788 789 789 788 787 786 786 784 783 783 783 782 782 781 780 777 774 772 769 766 763 760 757 754 751 748 746 744 742 740 738 737 736 735 734 734 734 734 733 732 731 731 731 729 726 723 720 716 711 707 704 701 696 691 687 683 680 677 675 673 671 669 669 670 668 666 664 664 666 667 667 667 666 667 669 670 673 676 678 680 684 691 696 701 705 707 709
787 787 787 786 785 785 785 783 782 782 782 781 781 780 779 776 774 771 767 764 761 758 755 751 747 744 741 740 738 737 736 736 734 733 733 733 733 733 732 731 731 732 731 729 726 723 720 716 713 710 708 704 700 694 690 686 684 681 678 675 673 672 672 671 669 666 664 665 665 666 667 668 668 669 671 672 675 680 683 684 687 690 695 701 706 708 710
784 784 784 784 783 783 782 782 781 780 780 781 780 779 778 776 773 770 766 763 759 756 752 747 743 739 736 735 735 734 734 733 732 732 732 733 733 732 731 731 732 732 731 728 726 723 720 717 714 712 709 706 702 697 693 690 688 685 681 678 676 676 676 673 670 668 667 666 666 667 668 669 670 671 672 672 675 680 685 688 691 693 696 701 705 708 710
783 783 783 783 783 782 781 781 780 779 779 780 779 778 777 775 772 769 765 762 758 754 749 745 740 735 733 732 732 733 733 732 731 732 732 733 733 733 732 733 734 734 731 728 725 723 720 718 715 712 710 708 705 701 697 694 691 689 686 682 680 680 679 676 673 672 671 670 669 670 671 671 672 674 674 673 675 679 685 690 695 699 702 704 706 709 711
782 782 782 782 782 781 780 780 779 779 778 778 778 777 776 774 772 769 765 761 758 753 748 744 740 737 735 734 733 733 734 733 732 732 732 733 733 734 734 735 736 734 732 730 728 725 722 720 717 714 711 710 708 706 701 697 694 692 690 687 685 685 683 679 677 678 678 676 676 676 675 675 676 677 677 677 678 682 686 691 696 701 705 708 709 711 713
781 781 781 781 781 780 779 779 779 778 778 777 777 776 775 774 772 769 765 761 758 754 749 745 742 740 738 736 735 735 736 735 733 732 733 733 734 734 736 737 737 735 734 733 732 729 726 722 719 716 714 713 711 708 704 700 697 695 693 691 690 689 688 685 684 684 684 683 682 682 681 680 681 682 683 684 685 688 692 695 699 703 706 709 711 714 716
780 781 781 780 780 780 779 779 778 778 777 777 776 776 775 773 772 770 766 762 759 755 751 748 745 742 740 739 738 738 739 736 734 734 734 734 734 736 738 740 739 737 736 735 734 731 729 725 722 719 717 715 713 710 706 702 699 697 696 695 695 694 693 692 691 691 691 690 689 688 687 687 688 689 690 691 692 695 699 702 704 707 709 711 714 716 718
780 781 780 780 780 779 779 779 778 778 777 777 776 775 775 773 772 770 767 764 761 758 755 752 748 745 744 743 742 741 741 739 738 737 737 736 736 738 740 741 740 738 737 736 734 732 730 727 723 721 719 717 715 712 708 704 701 699 699 699 699 699 699 698 698 699 698 698 697 697 696 695 695 696 696 696 697 700 704 709 711 712 713 715 717 719 721
779 780 780 780 780 779 779 779 778 778 777 777 776 775 774 773 772 771 769 766 764 761 758 755 751 749 747 746 744 743 743 742 742 741 740 740 741 742 742 742 741 739 738 736 734 732 731 728 725 723 722 720 718 714 710 707 704 703 703 703 703 703 703 703 704 704 704 705 705 705 705 704 704 704 703 703 703 705 708 712 716 719 720 720 721 723 725
778 779 779 779 780 779 779 779 778 778 778 777 776 775 774 773 772 772 770 768 766 763 760 757 754 752 750 749 747 745 745 746 746 745 745 745 746 746 745 744 743 741 739 737 734 732 731 728 726 725 725 723 721 716 712 710 708 707 707 708 708 707 707 707 708 709 710 710 711 712 712 712 712 711 710 711 712 714 715 717 719 723 726 728 728 728 729
777 778 779 780 780 779 779 779 779 778 778 777 775 775 775 774 773 772 771 770 767 764 762 760 757 755 754 752 750 749 749 749 749 748 748 749 749 749 748 746 745 743 741 738 736 734 732 730 729 728 726 725 722 718 715 713 713 713 713 713 713 712 712 712 712 714 715 715 715 716 717 717 718 718 719 719 720 723 725 725 725 726 730 733 735 736 736
778 779 779 780 779 779 779 779 778 778 777 776 776 775 775 774 774 773 772 771 769 766 764 763 761 759 757 756 754 753 753 753 752 752 751 751 751 751 750 749 747 745 743 740 738 736 735 733 732 731 729 727 725 722 720 720 721 721 720 719 718 718 717 717 717 718 720 721 721 722 723 723 724 725 726 727 728 729 731 732 733 733 734 736 739 742 744
778 779 779 779 779 779 779 779 778 777 776 776 775 775 775 774 774 774 772 771 770 769 767 766 764 762 761 760 759 758 758 757 756 755 754 753 753 753 753 752 749 747 745 743 741 739 738 737 736 735 734 732 730 728 727 727 727 728 727 725 724 724 724 723 723 723 725 726 727 728 729 729 730 731 732 734 735 735 736 736 738 739 740 741 743 745 748
777 778 779 779 779 779 779 778 777 777 776 776 775 775 774 774 774 774 773 772 772 771 770 769 767 766 765 764 763 763 762 761 759 758 757 757 757 757 756 754 752 750 748 745 743 742 742 741 740 739 739 738 736 734 733 733 733 733 732 731 731 731 731 731 730 730 731 732 733 734 735 736 737 738 739 740 740 741 741 741 742 743 745 747 748 750 751
776 777 778 779 779 779 779 778 777 776 776 776 775 775 775 774 774 774 774 774 773 772 772 771 770 768 768 767 766 765 765 764 763 762 761 760 760 759 758 756 755 753 750 748 747 746 746 745 744 743 743 742 741 739 739 738 738 737 737 737 738 738 738 738 738 738 738 738 739 740 741 742 743 744 745 746 746 746 746 746 747 749 750 752 753 755 756
775 776 778 779 779 779 778 778 777 777 777 776 776 775 775 775 775 775 775 775 774 774 774 773 772 771 770 769 768 768 767 766 765 765 765 764 762 761 760 759 757 755 753 752 751 750 750 749 748 747 746 746 745 744 744 744 743 743 742 743 744 744 745 745 744 744 744 745 745 746 747 748 749 750 750 751 752 752 752 752 753 754 755 757 758 760 761
774 775 777 778 779 779 779 778 778 778 777 777 776 776 776 775 776 776 776 776 776 776 776 775 775 774 773 772 771 771 770 769 768 768 767 766 765 763 762 761 760 758 757 755 754 754 753 752 752 751 750 749 749 748 748 748 749 749 749 749 749 750 751 751 751 750 750 751 752 752 753 754 755 756 756 756 757 757 758 758 759 760 761 762 763 764 765
774 776 777 778 779 779 779 779 779 778 778 778 777 777 776 776 777 778 778 778 778 778 778 778 777 777 776 775 774 773 773 772 771 770 770 768 767 766 765 764 763 761 760 759 759 758 758 756 756 755 754 753 753 753 753 753 753 754 755 755 755 755 756 756 756 756 756 756 757 758 759 760 760 760 761 762 762 763 763 764 765 765 766 767 767 768 769
775 776 777 778 779 780 779 779 779 779 779 778 778 777 777 778 778 779 779 779 779 779 779 779 779 779 778 777 777 776 775 774 774 773 772 771 770 769 768 767 766 765 764 763 763 763 763 762 761 760 759 758 758 758 758 758 758 758 759 759 759 760 760 761 761 761 761 762 762 763 764 764 765 765 765 766 767 768 769 769 770 770 771 771 772 772 773
775 776 777 778 779 780 779 780 780 780 780 779 779 779 779 779 780 780 780 781 781 781 781 781 781 781 780 779 779 779 778 777 777 776 775 774 774 773 772 771 770 769 768 768 768 768 768 767 767 766 765 764 764 763 763 763 763 763 763 764 764 764 765 765 765 765 765 766 767 767 768 769 769 769 770 770 771 772 773 773 774 774 775 775 776 776 777